Terminal Aerodrome Forecast
Issued by NWS

Home | Current Version | Previous Version | Text Only | Print | Product List | Glossary On
Versions: 1 2 3 4 5 6 7 8 9 10 11 12 13 14 15 16 17 18 19 20 21 22 23 24 25 26 27 28 29 30 31 32 33 34 35 36 37 38 39 40 41 42 43 44
000
FTUS45 KBOU 172330
TAFAPA
TAF
KAPA 172330Z 1800/1824 07006KT P6SM SCT100 SCT120 BKN170
     FM180140 01011G18KT P6SM SCT090 BKN150
     FM180300 07009KT P6SM FEW090 BKN150
     FM180400 14007KT P6SM FEW120 SCT200
     FM180600 19011KT P6SM SCT200
     FM182100 17012G19KT P6SM FEW110 SCT200=

USA.gov is the U.S. government's official web portal to all federal, state and local government web resources and services.